TimeEDT,TemperatureF,Dew PointF,Humidity,Sea Level PressureIn,VisibilityMPH,Wind Direction,Wind SpeedMPH,Gust SpeedMPH,PrecipitationIn,Events,Conditions,WindDirDegrees,DateUTC
12:51 AM,59.0,51.1,75,29.87,10.0,ENE,6.9,-,N/A,,Clear,60,2012-10-01 04:51:00
1:51 AM,57.9,51.1,78,29.87,10.0,ENE,5.8,-,N/A,,Partly Cloudy,60,2012-10-01 05:51:00
2:51 AM,57.0,51.1,81,29.86,10.0,ENE,4.6,-,N/A,,Clear,70,2012-10-01 06:51:00
3:51 AM,55.9,50.0,80,29.84,10.0,NE,5.8,-,N/A,,Clear,50,2012-10-01 07:51:00
4:51 AM,55.0,50.0,83,29.83,10.0,ENE,5.8,-,N/A,,Clear,60,2012-10-01 08:51:00
5:51 AM,55.0,48.9,80,29.82,10.0,NE,6.9,-,N/A,,Clear,50,2012-10-01 09:51:00
6:51 AM,53.1,48.9,86,29.83,10.0,ENE,3.5,-,N/A,,Clear,60,2012-10-01 10:51:00
7:51 AM,53.1,48.9,86,29.85,10.0,NE,4.6,-,N/A,,Clear,50,2012-10-01 11:51:00
8:51 AM,55.0,50.0,83,29.85,10.0,ENE,6.9,-,N/A,,Clear,60,2012-10-01 12:51:00
9:51 AM,55.9,51.1,84,29.86,10.0,ENE,5.8,-,0.00,Rain,Light Rain,70,2012-10-01 13:51:00
10:51 AM,57.9,52.0,81,29.85,10.0,NE,6.9,-,0.00,,Overcast,40,2012-10-01 14:51:00
11:51 AM,57.0,53.1,87,29.86,8.0,NNE,4.6,-,0.02,Rain,Light Rain,20,2012-10-01 15:51:00
12:51 PM,57.9,55.9,93,29.85,4.0,ENE,4.6,-,0.05,Rain,Light Rain,70,2012-10-01 16:51:00
1:38 PM,57.2,57.2,100,29.85,2.5,East,4.6,-,0.03,Rain,Light Rain,90,2012-10-01 17:38:00
1:51 PM,59.0,57.0,93,29.83,1.5,ENE,6.9,-,0.05,Rain,Light Rain,70,2012-10-01 17:51:00
2:51 PM,59.0,57.0,93,29.81,1.5,ENE,6.9,-,0.04,Rain,Light Rain,70,2012-10-01 18:51:00
3:51 PM,60.1,57.9,93,29.78,1.5,ENE,8.1,-,0.05,Rain,Light Rain,70,2012-10-01 19:51:00
4:51 PM,60.1,57.9,93,29.76,10.0,East,10.4,-,0.00,,Overcast,80,2012-10-01 20:51:00
4:58 PM,60.8,57.2,88,29.76,10.0,East,8.1,-,N/A,,Overcast,90,2012-10-01 20:58:00
5:49 PM,59.0,57.2,94,29.76,2.0,East,9.2,-,0.00,Rain,Rain,80,2012-10-01 21:49:00
5:51 PM,59.0,57.2,94,29.76,1.5,East,9.2,-,N/A,Rain,Rain,80,2012-10-01 21:51:00
6:06 PM,59.0,57.2,94,29.75,6.0,East,9.2,-,0.01,Rain,Light Rain,80,2012-10-01 22:06:00
6:16 PM,59.0,57.2,94,29.75,6.0,East,9.2,-,0.01,Rain,Light Rain,80,2012-10-01 22:16:00
6:51 PM,59.0,57.0,93,29.72,6.0,East,9.2,-,0.01,,Mostly Cloudy,80,2012-10-01 22:51:00
7:51 PM,59.0,57.0,93,29.72,6.0,ENE,6.9,-,0.00,,Mostly Cloudy,60,2012-10-01 23:51:00
7:58 PM,59.0,57.2,94,29.72,9.0,East,5.8,-,N/A,,Overcast,80,2012-10-01 23:58:00
8:51 PM,57.9,57.0,97,29.71,4.0,ENE,5.8,-,N/A,,Overcast,60,2012-10-02 00:51:00
9:08 PM,57.2,57.2,100,29.72,7.0,ENE,5.8,-,N/A,,Scattered Clouds,70,2012-10-02 01:08:00
9:51 PM,57.0,57.0,100,29.72,7.0,East,4.6,-,N/A,,Clear,80,2012-10-02 01:51:00
10:51 PM,57.9,57.0,97,29.71,5.0,East,5.8,-,N/A,,Scattered Clouds,80,2012-10-02 02:51:00
11:51 PM,57.9,57.0,97,29.70,6.0,East,6.9,-,N/A,,Scattered Clouds,90,2012-10-02 03:51:00